Location: Saint-Restitut
(44.3351°N, 4.7915°E)
Time: 12:24:59
(UTC+00:00)

Cosmos 2333 - Pass Details

Date: 03 February 2023
Orbit: 828 x 867 km, 70.9° (Epoch: 19 March)

Event Time Altitude Azimuth Distance (km) Brightness Sun altitude
Rises 18:31:42 0° 194° (SSW) 3,356 7.6 -17.9°
Reaches altitude 10° 18:34:08 10° 192° (SSW) 2,430 6.8 -18.4°
Maximum altitude 18:39:38 66° 111° (ESE) 912 4.1 -19.4°
Enters shadow 18:43:19 22° 35° (NE) 1,770 5.5 -20.0°
